Weather History for KBCB - December, 2011

Change the Weather History Date:

Tuesday, December 6, 2011

  Actual Average Record
Temperature  
Mean Temperature 54 °F 36 °F  
Max Temperature 57 °F 46 °F 75 °F (2001)
Min Temperature 51 °F 26 °F 4 °F (1974)
Degree Days  
Heating Degree Days 11 29  
Month to date heating degree days 136 169  
Since 1 July heating degree days 1168 1349  
Cooling Degree Days 0 0  
Month to date cooling degree days 0 0  
Year to date cooling degree days 870 573  
Growing Degree Days 7 (Base 50)    
Moisture  
Dew Point 58 °F    
Average Humidity 97    
Maximum Humidity 100    
Minimum Humidity 93    
Precipitation  
Precipitation 0.43 in 0.11 in 0.87 in (1954)
Month to date precipitation 0.49 0.62  
Year to date precipitation 40.55 38.56  
Snow  
Snow 0.00 in - - ()
Month to date snowfall 0.0  
Since 1 July snowfall T  
Snow Depth 0.00 in    
Sea Level Pressure  
Sea Level Pressure 30.09 in    
Wind  
Wind Speed 2 mph (South)    
Max Wind Speed 6 mph    
Max Gust Speed -    
Visibility 9 miles    
Events Rain    
T = Trace of Precipitation, MM = Missing Value Source: NWS Daily Summary

Daily Weather History Graph

Daily Weather History Graph

Search for Another Location

Airport or City:

Trip Planner

Search our weather history database for the weather conditions in past years. The results will help you decide how hot, cold, wet, or windy it might be!

Date:

Astronomy

Dec. 06, 2011 Rise Set
Actual Time 7:21 AM EST 5:04 PM EST
Civil Twilight 6:52 AM EST 5:32 PM EST
Nautical Twilight 6:19 AM EST 6:05 PM EST
Astronomical Twilight 5:48 AM EST 6:36 PM EST
Moon 2:28 PM EST 3:41 AM EST
Length of Visible Light 10h 40m
Length of Day
9h 43m
Waxing Gibbous, 86% of the Moon is Illuminated
Dec 6
Waxing Gibbous
Dec 10
Full
Dec 17
Last Quarter
Dec 24
New
Jan 1
First Quarter

Hourly Weather History & Observations

Time (EST) Temp. Dew Point Humidity Pressure Visibility Wind Dir Wind Speed Gust Speed Precip Events Conditions
12:15 AM 57.2 °F 57.2 °F 100% 30.17 in 10.0 mi South 5.8 mph - N/A   Overcast
12:35 AM 57.2 °F 57.2 °F 100% 30.17 in 10.0 mi Calm Calm - N/A   Light Drizzle
12:55 AM 57.2 °F 57.2 °F 100% 30.16 in 10.0 mi Calm Calm - N/A Rain Light Rain
1:15 AM 57.2 °F 57.2 °F 100% 30.15 in 10.0 mi SSE 3.5 mph - N/A Rain Rain
1:35 AM 57.2 °F 57.2 °F 100% 30.15 in 10.0 mi Calm Calm - N/A   Light Drizzle
1:55 AM 57.2 °F 57.2 °F 100% 30.14 in 10.0 mi SSE 3.5 mph - N/A Rain Rain
2:15 AM 57.2 °F 57.2 °F 100% 30.13 in 10.0 mi South 4.6 mph - 0.01 in Rain Rain
2:35 AM 57.2 °F 57.2 °F 100% 30.12 in 10.0 mi South 5.8 mph - 0.01 in   Light Drizzle
2:55 AM 57.2 °F 57.2 °F 100% 30.12 in 10.0 mi SSE 3.5 mph - 0.01 in   Overcast
3:15 AM 57.2 °F 57.2 °F 100% 30.13 in 10.0 mi SSW 4.6 mph - N/A   Overcast
3:35 AM 57.2 °F 57.2 °F 100% 30.13 in 10.0 mi SSW 4.6 mph - N/A   Overcast
3:55 AM 59.0 °F 57.2 °F 94% 30.12 in 10.0 mi South 5.8 mph - N/A   Overcast
4:15 AM 59.0 °F 57.2 °F 94% 30.12 in 10.0 mi SW 5.8 mph - N/A   Overcast
4:35 AM 59.0 °F 57.2 °F 94% 30.11 in 10.0 mi SSW 6.9 mph - N/A   Overcast
4:55 AM 57.2 °F 57.2 °F 100% 30.11 in 10.0 mi Calm Calm - N/A   Overcast
5:15 AM 57.2 °F 57.2 °F 100% 30.11 in 10.0 mi SSW 3.5 mph - N/A   Overcast
5:35 AM 57.2 °F 57.2 °F 100% 30.12 in 10.0 mi SSW 3.5 mph - N/A   Overcast
5:55 AM 57.2 °F 57.2 °F 100% 30.11 in 10.0 mi Calm Calm - N/A   Overcast
6:15 AM 57.2 °F 57.2 °F 100% 30.11 in 10.0 mi South 4.6 mph - N/A   Overcast
6:35 AM 57.2 °F 57.2 °F 100% 30.11 in 10.0 mi South 4.6 mph - N/A   Overcast
6:55 AM 57.2 °F 57.2 °F 100% 30.13 in 10.0 mi WSW 3.5 mph - N/A   Overcast
7:15 AM 57.2 °F 57.2 °F 100% 30.12 in 10.0 mi Calm Calm - N/A   Overcast
7:35 AM 57.2 °F 57.2 °F 100% 30.12 in 10.0 mi Calm Calm - N/A   Light Drizzle
7:55 AM 57.2 °F 57.2 °F 100% 30.12 in 10.0 mi Calm Calm - N/A   Overcast
8:15 AM 55.4 °F 55.4 °F 100% 30.12 in 10.0 mi Calm Calm - N/A   Overcast
8:35 AM 57.2 °F 57.2 °F 100% 30.12 in 4.0 mi South 3.5 mph - N/A   Heavy Drizzle
8:55 AM 57.2 °F 57.2 °F 100% 30.12 in 5.0 mi SSE 4.6 mph - N/A   Drizzle
9:15 AM 57.2 °F 57.2 °F 100% 30.11 in 7.0 mi South 4.6 mph - N/A   Light Drizzle
9:35 AM 57.2 °F 57.2 °F 100% 30.12 in 10.0 mi South 4.6 mph - N/A   Overcast
9:55 AM 57.2 °F 57.2 °F 100% 30.12 in 10.0 mi South 5.8 mph - N/A   Overcast
10:15 AM 59.0 °F 59.0 °F 100% 30.12 in 10.0 mi South 5.8 mph - N/A Rain Light Rain
10:35 AM 59.0 °F 59.0 °F 100% 30.11 in 10.0 mi South 4.6 mph - N/A Rain Light Rain
10:55 AM 59.0 °F 59.0 °F 100% 30.11 in 10.0 mi SSW 3.5 mph - 0.02 in Rain Rain
11:15 AM 57.2 °F 57.2 °F 100% 30.10 in 7.0 mi Calm Calm - 0.04 in Rain Rain
11:35 AM 57.2 °F 57.2 °F 100% 30.10 in 5.0 mi Calm Calm - 0.09 in Rain Heavy Rain
11:55 AM 57.2 °F 57.2 °F 100% 30.09 in 3.0 mi Calm Calm - 0.13 in Rain Rain
12:15 PM 57.2 °F 57.2 °F 100% 30.07 in 10.0 mi Calm Calm - 0.04 in Rain Rain
12:35 PM 57.2 °F 57.2 °F 100% 30.07 in 4.0 mi Calm Calm - 0.07 in Rain Rain
12:55 PM 57.2 °F 57.2 °F 100% 30.06 in 10.0 mi Calm Calm - 0.12 in Rain Rain
1:15 PM 59.0 °F 59.0 °F 100% 30.06 in 10.0 mi SSW 4.6 mph - 0.01 in Rain Light Rain
1:35 PM 59.0 °F 59.0 °F 100% 30.05 in 10.0 mi SSW 4.6 mph - 0.03 in Rain Light Rain
2:35 PM 59.0 °F 59.0 °F 100% 30.03 in 10.0 mi South 3.5 mph - 0.01 in   Overcast
2:55 PM 59.0 °F 59.0 °F 100% 30.03 in 10.0 mi Calm Calm - 0.02 in Rain Light Rain
3:15 PM 59.0 °F 59.0 °F 100% 30.03 in 10.0 mi Calm Calm - 0.01 in Rain Light Rain
3:35 PM 59.0 °F 59.0 °F 100% 30.03 in 10.0 mi South 3.5 mph - 0.02 in   Light Drizzle
3:55 PM 59.0 °F 59.0 °F 100% 30.03 in 10.0 mi Calm Calm - 0.02 in Rain Rain
4:15 PM 59.0 °F 59.0 °F 100% 30.03 in 10.0 mi Calm Calm - N/A Rain Rain
4:35 PM 59.0 °F 59.0 °F 100% 30.03 in 10.0 mi Calm Calm - 0.01 in Rain Rain
4:55 PM 59.0 °F 59.0 °F 100% 30.04 in 2.5 mi Calm Calm - 0.04 in Rain Heavy Rain
5:15 PM 59.0 °F 59.0 °F 100% 30.03 in 10.0 mi Calm Calm - 0.02 in Rain Light Rain
5:35 PM 57.2 °F 57.2 °F 100% 30.04 in 10.0 mi Calm Calm - 0.02 in   Light Drizzle
5:55 PM 57.2 °F 57.2 °F 100% 30.04 in 10.0 mi Calm Calm - 0.03 in   Light Drizzle
6:15 PM 57.2 °F 57.2 °F 100% 30.04 in 10.0 mi Calm Calm - N/A Rain Light Rain
6:35 PM 57.2 °F 57.2 °F 100% 30.03 in 10.0 mi Calm Calm - N/A   Light Drizzle
6:55 PM 57.2 °F 57.2 °F 100% 30.04 in 7.0 mi Calm Calm - N/A   Light Drizzle
7:15 PM 57.2 °F 57.2 °F 100% 30.04 in 5.0 mi Calm Calm - N/A   Light Drizzle
7:35 PM 57.2 °F 57.2 °F 100% 30.04 in 10.0 mi Calm Calm - N/A   Overcast
7:55 PM 55.4 °F 55.4 °F 100% 30.04 in 1.5 mi Calm Calm - N/A   Overcast
8:15 PM 57.2 °F 57.2 °F 100% 30.04 in 2.5 mi Calm Calm - N/A   Overcast
8:35 PM 55.4 °F 55.4 °F 100% 30.02 in 0.5 mi Calm Calm - N/A Fog Fog
8:55 PM 53.6 °F 53.6 °F 100% 30.01 in 0.2 mi Calm Calm - N/A Fog Fog
9:15 PM 53.6 °F 53.6 °F 100% 30.00 in 0.2 mi Calm Calm - N/A Fog Fog
9:35 PM 53.6 °F 53.6 °F 100% 30.01 in 1.2 mi Calm Calm - 0.01 in   Overcast
9:55 PM 53.6 °F 53.6 °F 100% 30.00 in 1.2 mi Calm Calm - 0.01 in   Overcast
10:15 PM 55.4 °F 55.4 °F 100% 30.00 in 3.0 mi Calm Calm - N/A   Overcast
10:35 PM 55.4 °F 55.4 °F 100% 29.99 in 1.5 mi Calm Calm - N/A   Overcast
10:55 PM 55.4 °F 55.4 °F 100% 29.98 in 5.0 mi Calm Calm - N/A   Light Drizzle
11:15 PM 55.4 °F 55.4 °F 100% 29.98 in 3.0 mi Calm Calm - N/A   Light Drizzle
11:35 PM 55.4 °F 55.4 °F 100% 29.98 in 4.0 mi Calm Calm - N/A   Overcast
11:55 PM 55.4 °F 55.4 °F 100% 29.98 in 2.0 mi Calm Calm - N/A   Overcast